DELTA 1 DEB, 7174

Orbit data source: Space-Track

DELTA 1 DEB, 7174 is space debris in SSO originally from a launch on Tue, 06 Nov 1973 UTC launched from the Air Force Western Test Range (AFWTR). Debris objects in space refer to the collection of defunct objects orbiting the Earth. Examples of debris include non-operational satellites, rocket bodies, and fragments generated from explosions, collisions, or faulty payload assembly.

Loading next visibility...
Identifier
7174, 1973-086EL
Orbit
SSO
Country
Flag of USUS
Related business
Manufacturer
Unknown
Mission
Spacecraft
Bus & Motor
Unknown
Mass
Unknown
Launch date (UTC)
1973-11-06 (53 years ago)
Launch vehicle
Unknown
Launch site
Air Force Western Test Range (AFWTR)
Object type
Payload
Rocket body
Debris
Shape & HBR
Unknown shape, 0.1 m
Radar Cross Section
Medium (>0.1 m² and <1 m²)

Expand to show TLE details & history
Last TLE update: 1 day ago

TLE from 1 day ago
0 DELTA 1 DEB
1 07174U 73086EL  26206.38588150 -.00000663  00000-0 -60177-2 0  9997
2 07174 102.0855 255.6911 0303840  91.8542 284.9501 12.08950922336041
Epoch: 2026-07-25T09:15Z
TLE epoch observation values (Epoch: 2026-07-25T09:15:40.161Z)
Latitude
13.0762°
Longitude
170.83803°
Altitude
1,586.925 km
Speed
7.101 km/s
True Right ascension
16h 51m 25s
True Declination
13° 00' 31"
Sunlit
Object was in daylight at epoch
Visualization orbit readout
Latitude
Unknown
Longitude
Unknown
Altitude
Unknown
Speed
Unknown
Apparent Right ascension
Unknown
Apparent Declination
Unknown
Sunlit
N/A
Visualization observer readout
Local Sidereal Time
23:16:44
Azimuth
Unknown
Elevation
Unknown
Doppler factor
Unknown
Orbital elements
Apogee altitude
1,882.232 km
Perigee altitude
1,395.068 km
Semi-major axis
8,016.787 km
Eccentricity
0.03038
Inclination
102.0855°
RAAN
255.6911°
Arg. of periapsis
91.8542°
True anomaly
281.55492°
Mean anomaly
284.9501°
Eccentric anomaly
283.25561°
Mean motion
3.02373 °/min
Orbital period
119.06 mins
BSTAR
-0.0060177
Loading maneuver chart data...
Computing Atmospheric mass density...
Loading historical data...
Loading historical data...
Loading historical data...
Loading historical data...
Loading historical data...
Loading historical data...
Loading historical data...

Documentation

Showing up to 5 results
|